www.pogodaiklimat.ru

Погода и климат >> Архив погоды >> Россия >> Астраханская область >> Досанг


ПОГОДА в Досанге

  • Прогноз погоды в Досанге
  • Монитор погоды в Досанге
  • Климат города

АРХИВ ПОГОДЫ в Досанге

Время (UTC), дата Ветер
(напр.,м/с)
 
Видим.   Явления Облачность Т
(С)
Тd
(С)
f
(%)
Тe
(С)
Тes
(С)
Комфортность P
(гПа)
Po
(гПа)
Тmin
(С)
Tmax
(С)
R
(мм)
R24
(мм)
S
(см)
00 11.08 СВ 3 10 км ясно +17.9 +4.6 41 +18 +18 1019.9 1022.0
03 11.08 СВ 4 20 км ясно +19.3 +4.7 38 +20 +20 1020.7 1022.8 +16.1
06 11.08 СВ 5 20 км ясно +27.0 +3.0 21 +25 +31 комфорт 1020.8 1022.9
09 11.08 СВ 4
{10}
20 км ясно +28.8 +2.1 18 +27 +37 жарко 1020.0 1022.1
12 11.08 В 3
{10}
20 км ясно +30.7 -1.7 12 +27 +35 жарко 1018.2 1020.3
15 11.08 Ю 3 20 км ясно +27.4 +5.3 24 +26 +27 жарко 1017.8 1019.9 +31.1
18 11.08 Ю 3 10 км ясно +22.0 +9.3 44 +23 +23 комфорт 1018.2 1020.3
21 11.08 СВ 1 10 км ясно +15.1 +7.1 59 +16 +16 1017.7 1019.9
00 12.08 СВ 2 10 км ясно +13.3 +6.4 63 +13 +13 1016.8 1019.0
03 12.08 В 1 20 км 3/0
[Ci fib]
+16.6 +7.2 54 +18 +19 1016.6 1018.7 +12.3
06 12.08 ЮВ 4 20 км ясно +27.6 +3.8 22 +26 +33 жарко 1017.0 1019.1
09 12.08 ЮВ 3 20 км 3/0
[Ci fib]
+30.8 +3.9 18 +29 +41 жарко 1016.0 1018.0
12 12.08 Ю 3 20 км 3/0
[Ci fib]
+31.3 +5.7 20 +29 +36 жарко 1014.7 1016.7
15 12.08 Ю 1 20 км ясно +29.1 +10.9 32 +29 +30 жарко 1013.5 1015.6 +31.3
18 12.08 Ю 2 10 км ясно +23.8 +12.5 49 +26 +26 жарко 1014.1 1016.2
21 12.08 Ю 1 10 км ясно +20.2 +13.0 63 +23 +23 комфорт 1013.3 1015.4
00 13.08 штиль 0 10 км ясно +16.2 +11.1 72 +16 +16 1012.8 1014.9
03 13.08 СЗ 1 20 км ясно +19.5 +11.1 58 +22 +23 комфорт 1012.8 1014.9 +15.0
06 13.08 З 2 20 км ясно +29.7 +9.4 28 +29 +39 жарко 1013.0 1015.1
09 13.08 З 3 20 км ясно +33.5 +6.1 18 +31 +44 жарко 1012.2 1014.3
12 13.08 ЮЗ 3 20 км ясно +34.2 +8.1 20 +33 +40 жарко 1010.6 1012.6
15 13.08 З 3 20 км 4/3 600 м
[Cu med, cong Ci fib]
+32.1 +9.4 25 +31 +32 жарко 1010.3 1012.3 +35.4
18 13.08 СВ 3 10 км ясно +28.3 +7.4 27 +28 +28 жарко 1011.6 1013.7
21 13.08 С 3 10 км ясно +23.0 +6.6 35 +24 +24 комфорт 1012.2 1014.3
00 14.08 СВ 3 10 км ясно +20.4 +7.6 44 +22 +22 комфорт 1012.3 1014.4
03 14.08 СВ 3 20 км ясно +19.9 +7.8 46 +21 +22 комфорт 1012.9 1015.0 +18.3
06 14.08 СВ 5 20 км ясно +28.0 +7.3 27 +27 +33 жарко 1013.1 1015.2
09 14.08 С 5
{10}
20 км ясно +30.7 +6.0 21 +29 +37 жарко 1013.0 1015.0
12 14.08 СВ 4 20 км ясно +32.4 +4.5 17 +30 +36 жарко 1012.3 1014.3
15 14.08 СВ 4
{12}
20 км ясно +31.8 +2.6 16 +29 +29 жарко 1011.7 1013.7 +32.8
18 14.08 В 3 10 км ясно +25.5 +5.4 27 +25 +25 комфорт 1013.4 1015.5
21 14.08 СВ 3 10 км ясно +22.2 +3.5 29 +22 +22 комфорт 1014.1 1016.2
00 15.08 С 3 10 км ясно +16.8 +3.0 40 +17 +17 1013.9 1016.0
03 15.08 С 3 20 км ясно +18.0 +3.6 38 +18 +19 1014.4 1016.5 +15.1
06 15.08 С 2 20 км ясно +27.4 +5.1 24 +26 +36 жарко 1014.5 1016.6
09 15.08 В 3 20 км 3/1 600 м
[Cu hum Ci fib]
+32.1 +3.4 16 +29 +40 жарко 1014.0 1016.0
12 15.08 ЮВ 5
{11}
20 км 9/6 600 м
[Cb cap Ci sp]
+31.2 +9.8 27 +31 +32 жарко 1014.1 1016.1
15 15.08 Ю 3 20 км 10/0
[Cs]
+27.9 +15.5 47 +31 +31 душно 1014.9 1016.9 +33.1
18 15.08 Ю 1 10 км 10/0
[Cs]
+24.3 +15.6 58 +27 +27 жарко 1016.3 1018.4
21 15.08 С 1 10 км 10/0
[Cs]
+20.3 +13.6 65 +24 +24 комфорт 1016.0 1018.1
00 16.08 СВ 2 10 км 8/0
[Cs]
+18.4 +13.2 72 +19 +19 1016.0 1018.1
03 16.08 С 3 20 км 10/0
[Cc]
+20.1 +8.4 47 +22 +22 комфорт 1016.8 1018.9 +17.8
06 16.08 В 4 20 км 10/0
[Cc]
+29.5 +5.3 22 +28 +33 жарко 1017.3 1019.4
09 16.08 ЮВ 4 20 км 10/0
[Cc]
+32.3 +1.9 14 +29 +38 жарко 1016.6 1018.6
12 16.08 В 5
{10}
20 км 10/0
[Ac As Ci sp]
+31.4 +3.0 16 +29 +31 жарко 1016.7 1018.7
15 16.08 Ю 3 20 км 9/0
[Ac As Ci sp]
+29.6 +8.5 27 +29 +29 жарко 1017.1 1019.1 +32.8
18 16.08 штиль 0 10 км 9/0
[Ac As Ci fib]
+22.7 +6.9 36 +23 +23 комфорт 1017.6 1019.7
21 16.08 СВ 2 10 км 9/0
[]
+23.6 +6.7 34 +24 +24 комфорт 1017.5 1019.6
00 17.08 СВ 3 10 км 10/0
[Ci sp]
+24.2 +1.5 23 +23 +23 комфорт 1016.9 1019.0
03 17.08 СВ 3 20 км 10/0
[Ac und]
+23.4 +1.6 24 +23 +23 комфорт 1017.1 1019.2 +21.6
06 17.08 В 6 20 км 10/0
[Ac und]
+28.4 +8.5 29 +28 +29 жарко 1017.7 1019.8
09 17.08 ЮВ 9-14
{14}
20 км пыльный позёмок 10/0
[Ac trans Cs]
+33.3 +2.4 14 +30 +31 жарко 1018.1 1020.2
12 17.08 В 9-13
{16}
20 км пыльный позёмок 8/0
[Ac trans Cs]
+32.3 +2.4 15 +29 +30 жарко 1018.3 1020.4
15 17.08 В 8-11
{15}
20 км пыльный позёмок 3/0
[Ac trans Ci fib]
+29.8 +0.3 15 +27 +27 жарко 1018.0 1020.1 +33.9
18 17.08 СВ 2
{11}
10 км ясно +20.9 +1.2 27 +22 +22 комфорт 1018.3 1020.4
21 17.08 СВ 3 10 км 3/0
[Ac trans]
+17.8 +0.8 32 +18 +18 1017.7 1019.8

 

Местоположение метеостанции Досанг (Астраханская область, Россия): широта 46.92 долгота 47.93 высота над уровнем моря -19 м.

В архиве по умолчанию представлена погода в Досанге за последнюю неделю. Архивные данные за месяц целиком и за предыдущие месяцы, начиная с января 2011 года, Вы можете получить, выбрав интересующий диапазон дат из раскрывающегося списка и нажав кнопку "Ввод!".

Внимание! Время в таблицах - всемирное. Для получения местного времени необходимо прибавить поправку, которая в Досанге равна 4 ч.

Смотрите также архив погоды в соседних городах и на ближайших метеорологических станциях:

Погода в Астрахани (Астраханская область, Россия) (71 км)
Погода в Харабали (Астраханская область, Россия) (74 км)
Погода в Зеленге (Астраханская область, Россия) (98 км)
Погода в Ганюшкино (Атырауская область, Казахстан) (108 км)
Погода в Юсте (Калмыкия, Россия) (124 км)
Погода в Жанауштогане (Атырауская область, Казахстан) (127 км)
Погода в Лимане (Астраханская область, Россия) (136 км)
Погода в Утте (Калмыкия, Россия) (158 км)
Погода в Исатай (Атырауская область, Казахстан) (163 км)
Погода в Верхнем Баскунчаке (Астраханская область, Россия) (170 км)

Пояснения к столбцам:

Ветер - указаны скорость ветра в м/с - средняя за 10 мин, порывы в срок и между сроками (в фигурных скобках) и направление, откуда дует ветер: С - северный, СВ - северо-восточный, В - восточный, ЮВ - юго-восточный, Ю - южный, ЮЗ - юго-западный, З - западный, СЗ - северо-западный.
Видимость - горизонтальная дальность видимости в метрах или километрах. При видимости от 1 до 10 км при отсутствии осадков обычно наблюдается дымка, при ухудшении видимости до 1 км и менее - туман. В сухую погоду видимость может ухудшаться дымом, пылью или мглою.
Явления - указаны атмосферные явления, наблюдавшиеся в срок или в последний час перед сроком; фигурными скобками обозначены явления, наблюдавшиеся между сроками (за 1-3 часа до срока); квадратными скобками обозначены град или гололедные отложения с указанием их диаметра в мм.
Облачность - указаны через наклонную черту общая и нижняя облачность в баллах и высота нижней границы облаков в метрах; квадратными скобками обозначены формы облаков: Ci - перистые, Cs - перисто-слоистые, Cc - перисто-кучевые, Ac - высококучевые, As - высокослоистые, Sc - слоисто-кучевые, Ns - слоисто-дождевые, Cu - кучевые, Cb - кучево-дождевые. Подробнее классификацию облаков см. в Атласе облаков (PDF).
T - Температура воздуха - температура, измеренная на высоте 2 м над землей.
Td - Температура точки росы - температура, при понижении до которой содержащийся в воздухе водяной пар достигнет насыщения.
f - Относительная влажность воздуха - влажноcть воздуха, измеренная на высоте 2 м над землей.
Te - Эффективная температура - температура, которую ощущает одетый по сезону человек в тени. Характеристика душности погоды. При расчете учитывается влияние влажности воздуха и скорости ветра на теплоощущения человека.
Tes - Эффективная температура на солнце - температура, которую ощущает человек, с поправкой на солнечный нагрев. Характеристика знойности погоды. Зависит от высоты солнца над горизонтом, облачности и скорости ветра. Ночью, в пасмурную погоду, а также при ветре 12 м/с и более поправка равна нулю.
P - Атмосферное давление - приведенное к уровню моря атмосферное давление.
Po - Атмосферное давление - измеренное на уровне метеостанции атмосферное давление.
Tmin - Минимальная температура - минимум температуры воздуха на высоте 2 м над землей.
Tmax - Максимальная температура - максимум температуры воздуха на высоте 2 м над землей.
R - Количество осадков - Количество выпавших осадков за период времени, мм. При наведении курсора мыши на число - период времени, за который выпало указанное количество осадков.
R24 - Количество осадков - Количество выпавших осадков за 24 часа, мм.
S - Снежный покров - Высота снежного покрова, см. При наведении курсора мыши на число - состояние снежного покрова и степень покрытия местности в баллах.